User: anonymous
Location: South Range
(44.4886°N, 65.7879°W)
Time: 22:39:45
(UTC-03:00)
Language:

Iridium 56 - Orbit

View from above orbital plane
View from above orbital plane
View from above satellite
View from above satellite

Ground track
Ground track

The orbit data is extracted from the following two-line orbital elements,

1 25170U 98010B   14203.25262745  .00000262  00000-0  86377-4 0  7001
2 25170 086.3944 073.9411 0002087 105.6880 032.6945 14.34212438859699
Epoch (UTC): 22 July 2014 06:03:47
Eccentricity: 0.0002087
inclination: 86.3944°
perigee height: 776 km
apogee height: 779 km
right ascension of ascending node: 73.9411°
argument of perigee: 105.6880°
revolutions per day: 14.34212438
mean anomaly at epoch: 32.6945°
orbit number at epoch: 85969

The dashed part of the orbit path shows where the satellite is in the earth's shadow,  

DLR